Location: *
(11.7485°N, 79.7483°E)
Time: 02:50:44
(UTC+00:00)

SJ 16-02 - Pass Details

Date: 22 January 2021
Orbit: 606 x 616 km, 75.0° (Epoch: 05 March)

Event Time Altitude Azimuth Distance (km) Brightness Sun altitude
Exits shadow 00:27:32 - 324° (NW) 2,163 3.7 -9.7°
Reaches altitude 10° 00:28:08 10° 320° (NW) 1,949 3.4 -9.6°
Maximum altitude 00:31:54 29° 260° (W) 1,121 2.2 -8.7°
Drops below altitude 10° 00:35:40 10° 200° (SSW) 1,952 3.9 -7.8°
Sets 00:38:07 0° 189° (S) 2,857 4.9 -7.3°
